R2AJV-13 Weather Reports


time (UTC)temp
F
wind
direction
speed
knots
gust
knots
rain 1hr
in
rain 24hr
in
rain mn
in
humidity
%
barometer
mb
20260906103101 65 251 0.9 3.5 0.00 0.08 0.00 68 988.6
20260906100039 63 270 0.9 1.7 0.00 0.11 0.00 72 988.6
20260906094528 63 266 0.9 3.5 0.00 0.15 0.00 74 988.3
20260906093018 62 248 0.0 1.7 0.00 0.18 0.00 79 988.2
20260906091614 61 248 0.9 3.5 0.00 0.19 0.00 80 988.3
20260906084525 61 263 0.0 1.7 0.00 0.21 0.00 80 988.0
20260906081604 61 244 0.9 3.5 0.00 0.21 0.00 80 988.0
20260906074543 57 274 1.7 6.1 0.00 0.27 0.00 89 988.0
20260906073038 57 275 0.9 3.5 0.00 0.32 0.00 92 987.9
20260906071527 57 262 0.9 1.7 0.00 0.41 0.00 92 987.9
20260906070017 56 250 0.9 3.5 0.00 0.45 0.00 93 987.8
20260906064606 55 286 0.0 3.5 0.00 0.50 0.00 95 987.8
20260906063102 54 293 0.0 1.7 0.00 0.56 0.00 97 987.6
20260906061550 53 279 0.9 3.5 0.00 0.61 0.00 99 987.4
20260906060040 53 270 0.0 1.7 0.00 0.67 0.00 99 987.4
20260906054529 52 286 0.9 3.5 0.00 0.73 0.00 99 987.4
20260906053018 52 270 0.0 1.7 0.00 0.76 0.00 99 987.3
20260906051614 51 225 0.9 3.5 0.00 0.80 0.00 99 987.4
20260906050030 51 283 0.9 1.7 0.00 0.81 0.00 99 987.2
20260906041605 50 248 0.0 3.5 0.00 0.85 0.00 99 987.2
20260906034543 50 259 0.0 1.7 0.00 0.90 0.00 99 987.1
20260906033038 50 270 0.0 3.5 0.00 0.90 0.00 99 986.9
20260906031529 49 220 0.9 1.7 0.00 0.91 0.00 99 986.9
20260906030016 49 270 0.0 1.7 0.00 0.92 0.00 99 986.7
20260906024606 49 248 0.0 1.7 0.00 0.92 0.00 99 986.6
20260906023101 49 248 0.0 1.7 0.00 0.92 0.00 99 986.4
20260906021551 49 248 0.0 1.7 0.00 0.92 0.00 99 986.3
20260906020040 48 248 0.0 1.7 0.00 0.93 0.00 99 986.5
20260906014529 48 270 0.0 1.7 0.00 0.93 0.00 99 986.4
20260906013018 47 270 0.0 0.0 0.00 0.94 0.00 99 986.4
20260906011614 47 270 0.0 0.0 0.00 0.94 0.00 99 986.3
20260906004526 46 270 0.0 0.0 0.00 0.94 0.00 99 986.1
20260906003115 46 270 0.0 0.0 0.00 0.94 0.00 99 986.1
20260906001604 46 270 0.0 0.0 0.00 0.94 0.00 99 985.9
20260906000054 46 270 0.0 0.0 0.00 0.94 0.00 99 986.0
20260905233038 47 270 0.0 0.0 0.00 0.94 0.00 99 985.8
20260905231527 47 270 0.0 0.0 0.00 0.94 0.00 99 985.9
20260905230017 48 270 0.0 0.0 0.00 0.94 0.00 99 985.8
20260905224607 48 270 0.0 1.7 0.00 0.94 0.00 99 985.8
20260905223101 49 270 0.0 1.7 0.00 0.94 0.00 99 985.6
20260905221551 49 270 0.0 0.0 0.00 0.94 0.00 99 985.6
20260905220039 49 270 0.0 1.7 0.00 0.94 0.00 99 985.7
20260905214530 49 276 0.0 1.7 0.00 0.94 0.00 99 985.5
20260905213019 50 270 0.0 1.7 0.00 0.94 0.00 99 985.4
20260905211614 50 270 0.0 1.7 0.00 0.94 0.00 99 985.3
20260905210031 51 270 0.0 1.7 0.00 0.94 0.00 99 985.3
20260905204525 51 270 0.0 1.7 0.00 0.94 0.94 98 985.2
20260905203115 52 237 0.9 3.5 0.00 0.94 0.94 98 985.2
20260905201606 52 277 0.9 1.7 0.00 0.94 0.94 97 985.0
20260905200053 53 274 0.9 5.2 0.00 0.94 0.94 97 984.9
20260905194543 53 243 0.9 1.7 0.00 0.94 0.94 96 984.8
20260905193039 54 278 0.9 1.7 0.00 0.94 0.94 95 984.8
20260905191528 54 265 0.9 3.5 0.00 0.94 0.94 95 984.6
20260905184607 55 272 0.9 3.5 0.00 0.94 0.94 95 984.2
20260905183102 55 274 1.7 3.5 0.00 0.94 0.94 95 983.9
20260905181551 55 282 0.9 3.5 0.00 0.94 0.94 96 983.7
20260905180040 56 268 0.9 3.5 0.00 0.94 0.94 97 983.4
20260905174529 56 262 2.6 6.1 0.00 0.94 0.94 97 983.2
20260905173019 56 252 1.7 5.2 0.00 0.94 0.94 97 982.8
20260905171616 56 225 0.9 1.7 0.00 0.94 0.94 97 982.6
20260905170538 56 263 0.9 3.5 0.00 0.94 0.94 98 982.5
20260905165028 55 264 0.9 3.5 0.00 0.94 0.94 97 982.3
20260905163517 55 249 1.7 7.0 0.00 0.94 0.94 98 982.0
20260905162112 55 245 1.7 3.5 0.00 0.94 0.94 98 981.8
20260905160602 55 270 0.9 1.7 0.01 0.94 0.94 98 981.8
20260905155051 55 264 1.7 3.5 0.01 0.94 0.94 97 981.5
20260905153540 55 277 2.6 9.6 0.01 0.94 0.94 97 981.4
20260905152035 56 249 2.6 6.1 0.01 0.94 0.94 97 981.1
20260905150524 57 283 4.3 13.0 0.00 0.93 0.93 92 980.8
20260905145114 58 269 2.6 7.8 0.00 0.93 0.93 91 980.5
20260905143603 59 251 2.6 9.6 0.00 0.93 0.93 90 980.2
20260905142052 58 263 2.6 7.8 0.00 0.93 0.93 94 980.0
20260905141550 58 203 1.7 3.5 0.07 0.93 0.93 94 980.0
20260905134530 58 263 2.6 7.8 0.07 0.93 0.93 98 979.2
20260905133019 58 240 1.7 7.0 0.07 0.93 0.93 99 978.9
20260905131615 58 253 0.9 3.5 0.07 0.93 0.93 98 978.7
20260905130031 59 292 2.6 9.6 0.00 0.86 0.86 94 978.1
20260905124526 61 253 2.6 6.1 0.00 0.86 0.86 89 977.7
20260905123116 62 265 2.6 5.2 0.00 0.86 0.86 88 977.6
20260905121605 63 269 1.7 7.0 0.00 0.86 0.86 88 977.2
20260905114543 59 280 4.3 12.2 0.00 0.86 0.86 97 976.4
20260905113039 60 239 3.5 7.8 0.00 0.86 0.86 99 975.2
20260905111528 60 264 3.5 9.6 0.01 0.86 0.86 99 974.3
20260905110017 59 247 2.6 7.0 0.02 0.86 0.86 99 973.8
20260905104607 59 255 1.7 5.2 0.07 0.86 0.86 99 973.4